Surface/Precipitation History
04/23/2017 13:05  to  4/24/2017 13:05
Change End Date:
Date/Time
(MDT)
Sf
Temp Chem Water Layer Surface Precipitation
Sfc Pvt Sub Frz Factor Pct Dpth DpthThk IcePct Cond Salin FI Type Intens Accum Rate
04/24/2017 12:55 Wet 42.3F - 42F 3F 5 50% 0.00 in - 0% 259 mhos 15000 - Yes - - -
04/24/2017 12:48 Wet 42.6F - 42F 3F 10 50% 0.00 in - 0% 332 mhos 15000 - Yes - - -
04/24/2017 12:40 Wet 44.2F - 42F 3F 15 50% 0.00 in - 0% 332 mhos 15000 - Yes - - -
04/24/2017 12:38 Wet 44.4F - 42F 3F 25 50% 0.00 in - 0% 314 mhos 15000 - Yes - - -
04/24/2017 12:28 Wet 46.2F - 42F 3F 40 50% 0.00 in - 0% 205 mhos 15000 - Yes - - -
04/24/2017 12:25 Wet 46.4F - 42F 3F 30 50% 0.00 in - 0% 198 mhos 15000 - Yes - - -
04/24/2017 12:18 Wet 47.5F - 42F 3F 30 50% 0.00 in - 0% 284 mhos 15000 - Yes - - -
04/24/2017 12:10 Wet 46.9F - 42F 3F 30 50% 0.00 in - 0% 331 mhos 15000 - Yes - - -
04/24/2017 12:08 Wet 46.9F - 42F 3F 30 50% 0.00 in - 0% 351 mhos 15000 - None None - -
04/24/2017 11:58 Wet 46.9F - 42F 3F 30 50% 0.00 in - 0% 351 mhos 15000 - Yes - - -
04/24/2017 11:55 Wet 46.6F - 42F 3F 30 50% 0.00 in - 0% 351 mhos 15000 - Yes - - -
04/24/2017 11:48 Wet 45.9F - 42F 3F 30 50% 0.00 in - 0% 351 mhos 15000 - Yes - - -
04/24/2017 11:40 Wet 46.2F - 42F 3F 25 50% 0.00 in - 0% 373 mhos 15000 - Yes - - -
04/24/2017 11:37 Wet 45.9F - 42F 3F 25 50% 0.00 in - 0% 373 mhos 15000 - None None - -
04/24/2017 11:27 Wet 45.0F - 42F 3F 25 50% 0.00 in - 0% 314 mhos 15000 - Yes - - -
Date/Time
(MDT)
Sf
Temp Chem Water Layer Surface Precipitation
Sfc Pvt Sub Frz Factor Pct Dpth DpthThk IcePct Cond Salin FI Type Intens Accum Rate
04/24/2017 11:25 Wet 45.0F - 42F 3F 25 50% 0.00 in - 0% 331 mhos 15000 - Yes - - -
04/24/2017 11:17 Wet 44.8F - 42F 3F 20 50% 0.00 in - 0% 332 mhos 15000 - Yes - - -
04/24/2017 11:10 Wet 44.8F - 42F 3F 20 50% 0.00 in - 0% 314 mhos 15000 - Yes - - -
04/24/2017 11:07 Wet 44.2F - 42F 3F 20 50% 0.00 in - 0% 298 mhos 15000 - Yes - - -
04/24/2017 10:57 Wet 42.8F - 42F 3F 25 50% 0.00 in - 0% 398 mhos 15000 - Yes - - -
04/24/2017 10:55 Wet 42.4F - 42F 3F 20 50% 0.00 in - 0% 373 mhos 15000 - Yes - - -
04/24/2017 10:47 Wet 41.4F - 42F 3F 20 50% 0.00 in - 0% 373 mhos 15000 - Yes - - -
04/24/2017 10:40 Wet 40.1F - 42F 3F 25 50% 0.00 in - 0% 314 mhos 15000 - Yes - - -
04/24/2017 10:37 Wet 39.7F - 42F 3F 30 50% 0.00 in - 0% 373 mhos 15000 - Yes - - -
04/24/2017 10:27 Wet 37.9F - 42F 3F 15 50% 0.00 in - 0% 373 mhos 15000 - Yes - - -
04/24/2017 10:25 Wet 37.6F - 42F 3F 15 50% 0.00 in - 0% 398 mhos 15000 - Yes - - -
04/24/2017 10:17 Wet 37.2F - 42F 3F 30 50% 0.00 in - 0% 498 mhos 15000 - Yes - - -
04/24/2017 10:10 Wet 36.5F - 42F 3F 25 50% 0.00 in - 0% 543 mhos 15000 - Yes - - -
04/24/2017 10:07 Wet 36.5F - 42F 3F 25 50% 0.00 in - 0% 665 mhos 15000 - Yes - - -
04/24/2017 09:57 Wet 35.6F - 42F 3F 25 50% 0.00 in - 0% 749 mhos 15000 - Yes - - -
Date/Time
(MDT)
Sf
Temp Chem Water Layer Surface Precipitation
Sfc Pvt Sub Frz Factor Pct Dpth DpthThk IcePct Cond Salin FI Type Intens Accum Rate
04/24/2017 09:55 Wet 35.6F - 42F 3F 25 50% 0.00 in - 0% 749 mhos 15000 - Yes - - -
04/24/2017 09:47 Wet 35.8F - 42F 3F 40 50% 0.00 in - 0% 498 mhos 15000 - Yes - - -
04/24/2017 09:40 Wet 35.4F - 42F 3F 40 50% 0.00 in - 0% 156 mhos 15000 - Yes - - -
04/24/2017 09:37 Wet 35.6F - 42F 31F 25 5% 0.10 in - 0% 14 mhos 1404 - Yes - - -
04/24/2017 09:27 Wet 36.9F - 42F 32F 5 2% 0.20 in - 0% 5 mhos 502 - Yes - - -
04/24/2017 09:25 Wet 36.9F - 42F 32F 5 2% 0.20 in - 0% 5 mhos 504 - Yes - - -
04/24/2017 09:17 Wet 36.7F - 42F 32F 5 2% 0.20 in - 0% 6 mhos 539 - None None - -
04/24/2017 09:10 Wet 36.3F - 42F 31F 5 2% 0.70 in - 0% 6 mhos 615 - Yes - - -
04/24/2017 09:07 Wet 36.0F - 42F 31F 5 2% 0.70 in - 0% 7 mhos 685 - Yes - - -
04/24/2017 08:57 Wet 36.3F - 42F 32F 5 2% 0.70 in - 0% 5 mhos 487 - None None - -
04/24/2017 08:55 Wet 36.1F - 42F 32F 5 2% 0.70 in - 0% 5 mhos 504 - None None - -
04/24/2017 08:47 Wet 35.8F - 42F 31F 5 2% 0.70 in - 0% 6 mhos 614 - Yes - - -
04/24/2017 08:40 Wet 35.2F - 42F 31F 5 2% 0.70 in - 0% 6 mhos 591 - Yes - - -
04/24/2017 08:37 Wet 35.2F - 42F 31F 5 2% 0.70 in - 0% 6 mhos 627 - None None - -
04/24/2017 08:27 Wet 34.5F - 42F 31F 5 3% 0.70 in - 0% 9 mhos 938 - None None - -
Date/Time
(MDT)
Sf
Temp Chem Water Layer Surface Precipitation
Sfc Pvt Sub Frz Factor Pct Dpth DpthThk IcePct Cond Salin FI Type Intens Accum Rate
04/24/2017 08:25 Wet 34.5F - 42F 31F 5 3% 0.70 in - 0% 10 mhos 996 - None None - -
04/24/2017 08:16 Wet 33.6F - 42F 31F 5 4% 0.70 in - 0% 11 mhos 1113 - None None - -
04/24/2017 08:10 Wet 33.6F - 42F 31F 5 4% 0.70 in - 0% 12 mhos 1190 - None None - -
04/24/2017 08:06 Wet 33.4F - 42F 31F 5 4% 0.70 in - 0% 12 mhos 1213 - None None - -
04/24/2017 07:56 Wet 32.9F - 42F 31F 5 4% 0.70 in - 0% 13 mhos 1308 - None None - -
04/24/2017 07:55 Wet 32.7F - 42F 31F 5 5% 0.70 in - 0% 14 mhos 1454 - None None - -
04/24/2017 07:46 Chemically Wet 31.5F - 42F 31F 5 3% 0.70 in - 0% 8 mhos 859 - None None - -
04/24/2017 07:40 Chemically Wet 31.1F - 42F 31F 5 2% - - 67% 7 mhos 739 - None None - -
04/24/2017 07:36 Chemically Wet 30.9F - 42F 31F 5 2% - - 73% 6 mhos 686 - None None - -
04/24/2017 07:26 Ice Warning 30.2F - 43F 32F 5 2% - - 86% 5 mhos 541 - None None - -
04/24/2017 07:25 Ice Warning 30.2F - 43F 32F 5 2% - - 86% 5 mhos 520 - None None - -
04/24/2017 07:16 Ice Warning 30.0F - 43F 32F 5 2% - - 89% 4 mhos 484 - None None - -
04/24/2017 07:10 Ice Warning 29.8F - 43F 32F 5 2% - - 90% 4 mhos 460 - None None - -
04/24/2017 07:06 Ice Warning 29.7F - 43F 32F 5 2% - - 91% 4 mhos 452 - None None - -
04/24/2017 06:56 Ice Warning 29.5F - 43F 32F 5 1% - - 92% 4 mhos 435 - None None - -
Date/Time
(MDT)
Sf
Temp Chem Water Layer Surface Precipitation
Sfc Pvt Sub Frz Factor Pct Dpth DpthThk IcePct Cond Salin FI Type Intens Accum Rate
04/24/2017 06:55 Ice Warning 29.3F - 43F 32F 5 1% - - 92% 4 mhos 438 - None None - -
04/24/2017 06:46 Ice Warning 29.3F - 43F 32F 5 1% - - 92% 3 mhos 430 - None None - -
04/24/2017 06:40 Ice Warning 29.3F - 43F 32F 5 1% - - 92% 3 mhos 422 - None None - -
04/24/2017 06:36 Ice Warning 29.3F - 43F 32F 5 1% - - 92% 3 mhos 420 - None None - -
04/24/2017 06:26 Ice Warning 29.7F - 43F 32F 5 1% - - 92% 3 mhos 408 - None None - -
04/24/2017 06:25 Ice Warning 29.5F - 43F 32F 5 1% - - 92% 3 mhos 413 - None None - -
04/24/2017 06:16 Ice Warning 29.8F - 43F 32F 5 1% - - 91% 3 mhos 399 - None None - -
04/24/2017 06:10 Ice Warning 30.0F - 43F 32F 5 1% - - 91% 3 mhos 383 - None None - -
04/24/2017 06:06 Ice Warning 30.0F - 43F 32F 5 1% - - 91% 3 mhos 373 - None None - -
04/24/2017 05:56 Ice Warning 29.7F - 43F 32F 5 1% - - 93% 3 mhos 348 - None None - -
04/24/2017 05:55 Ice Warning 29.7F - 43F 32F 5 1% - - 93% 3 mhos 346 - None None - -
04/24/2017 05:46 Ice Warning 29.5F - 43F 32F 5 1% - - 94% 3 mhos 332 - None None - -
04/24/2017 05:40 Ice Warning 29.5F - 43F 32F 5 0% - - 99% 0 mhos 53 - None None - -
04/24/2017 05:36 Ice Warning 29.3F - 43F 32F 5 0% - - 99% 0 mhos 54 - None None - -
04/24/2017 05:26 Ice Warning 28.9F - 43F 32F 5 0% - - 99% 0 mhos 56 - None None - -
Date/Time
(MDT)
Sf
Temp Chem Water Layer Surface Precipitation
Sfc Pvt Sub Frz Factor Pct Dpth DpthThk IcePct Cond Salin FI Type Intens Accum Rate
04/24/2017 05:25 Ice Warning 28.9F - 43F 32F 5 0% - - 99% 0 mhos 56 - None None - -
04/24/2017 05:15 Ice Warning 28.9F - 43F 32F 5 0% - - 99% 0 mhos 55 - None None - -
04/24/2017 05:10 Ice Warning 28.9F - 43F 32F 5 0% - - 99% 0 mhos 56 - None None - -
04/24/2017 05:05 Ice Warning 29.1F - 43F 32F 5 0% - - 99% 0 mhos 55 - None None - -
04/24/2017 04:55 Ice Warning 30.0F - 43F 32F 5 1% - - 92% 3 mhos 334 - None None - -
04/24/2017 04:55 Ice Warning 30.0F - 43F 32F 5 1% - - 92% 3 mhos 334 - None None - -
04/24/2017 04:45 Ice Warning 30.2F - 43F 32F 5 1% - - 91% 3 mhos 336 - None None - -
04/24/2017 04:40 Ice Warning 30.4F - 43F 32F 5 1% - - 91% 3 mhos 329 - None None - -
04/24/2017 04:35 Ice Warning 30.4F - 43F 32F 5 1% - - 91% 3 mhos 329 - None None - -
04/24/2017 04:25 Ice Warning 30.9F - 43F 32F 5 1% - - 87% 3 mhos 325 - None None - -
04/24/2017 04:25 Ice Warning 30.9F - 43F 32F 5 1% - - 87% 3 mhos 325 - None None - -
04/24/2017 04:15 Chemically Wet 31.3F - 43F 32F 5 1% - - 77% 3 mhos 352 - None None - -
04/24/2017 04:10 Chemically Wet 31.3F - 43F 32F 5 1% - - 79% 3 mhos 322 - None None - -
04/24/2017 04:05 Chemically Wet 31.3F - 43F 32F 5 1% - - 82% 3 mhos 284 - None None - -
04/24/2017 03:55 Ice Warning 31.3F - 44F 32F 5 0% - - 97% 0 mhos 50 - None None - -
Date/Time
(MDT)
Sf
Temp Chem Water Layer Surface Precipitation
Sfc Pvt Sub Frz Factor Pct Dpth DpthThk IcePct Cond Salin FI Type Intens Accum Rate
04/24/2017 03:55 Ice Warning 31.3F - 44F 32F 5 0% - - 97% 0 mhos 50 - None None - -
04/24/2017 03:45 Ice Warning 31.3F - 44F 32F 5 0% - - 97% 0 mhos 49 - None None - -
04/24/2017 03:40 Ice Warning 31.3F - 44F 32F 5 0% - - 97% 0 mhos 49 - None None - -
04/24/2017 03:35 Ice Warning 31.3F - 44F 32F 5 0% - - 97% 0 mhos 50 - None None - -
04/24/2017 03:25 Ice Warning 30.9F - 44F 32F 5 0% - - 98% 0 mhos 51 - None None - -
04/24/2017 03:25 Ice Warning 30.9F - 44F 32F 5 0% - - 98% 0 mhos 51 - None None - -
04/24/2017 03:15 Ice Warning 30.7F - 44F 32F 5 1% - - 85% 4 mhos 422 - None None - -
04/24/2017 03:10 Ice Warning 30.6F - 44F 32F 5 1% - - 87% 4 mhos 406 - None None - -
04/24/2017 03:05 Ice Warning 30.6F - 44F 32F 5 1% - - 88% 4 mhos 397 - None None - -
04/24/2017 02:55 Ice Warning 30.9F - 44F 32F 5 1% - - 88% 3 mhos 309 - None None - -
04/24/2017 02:55 Ice Warning 30.9F - 44F 32F 5 1% - - 88% 3 mhos 309 - None None - -
04/24/2017 02:45 Ice Warning 31.3F - 44F 32F 5 0% - - 97% 0 mhos 50 - None None - -
04/24/2017 02:40 Ice Warning 31.1F - 44F 32F 5 0% - - 98% 0 mhos 50 - None None - -
04/24/2017 02:35 Ice Warning 31.3F - 44F 32F 5 0% - - 97% 0 mhos 49 - None None - -
04/24/2017 02:25 Ice Warning 31.3F - 44F 32F 5 0% - - 97% 0 mhos 49 - None None - -
Date/Time
(MDT)
Sf
Temp Chem Water Layer Surface Precipitation
Sfc Pvt Sub Frz Factor Pct Dpth DpthThk IcePct Cond Salin FI Type Intens Accum Rate
04/24/2017 02:25 Ice Warning 31.3F - 44F 32F 5 0% - - 97% 0 mhos 49 - None None - -
04/24/2017 02:15 Ice Warning 31.6F - 44F 32F 5 0% - - 94% 0 mhos 47 - None None - -
04/24/2017 02:10 Chemically Wet 32.0F - 44F 32F 5 0% 0.70 in - 0% 0 mhos 46 - None None - -
04/24/2017 02:05 Wet 32.2F - 44F 32F 5 0% 0.70 in - 0% 0 mhos 46 - Yes - - -
04/24/2017 01:55 Wet 32.4F - 44F 32F 5 1% 0.70 in - 0% 3 mhos 331 - None None - -
04/24/2017 01:54 Wet 32.4F - 44F 32F 5 1% 0.70 in - 0% 3 mhos 331 - None None - -
04/24/2017 01:44 Wet 32.2F - 44F 32F 5 1% 0.70 in - 0% 3 mhos 320 - None None - -
04/24/2017 01:40 Chemically Wet 32.0F - 44F 32F 5 1% 0.70 in - 0% 3 mhos 325 - None None - -
04/24/2017 01:34 Chemically Wet 31.8F - 44F 32F 5 1% 0.70 in - 0% 3 mhos 323 - None None - -
04/24/2017 01:25 Chemically Wet 32.0F - 44F 32F 5 1% 0.70 in - 0% 3 mhos 322 - None None - -
04/24/2017 01:24 Chemically Wet 32.0F - 44F 32F 5 1% 0.70 in - 0% 3 mhos 322 - None None - -
04/24/2017 01:14 Wet 32.5F - 44F 32F 5 1% 0.70 in - 0% 3 mhos 313 - None None - -
04/24/2017 01:10 Wet 32.5F - 44F 32F 5 1% 0.70 in - 0% 3 mhos 304 - None None - -
04/24/2017 01:04 Wet 32.5F - 44F 32F 5 1% 0.70 in - 0% 3 mhos 276 - None None - -
04/24/2017 00:55 Wet 32.5F - 44F 32F 5 0% 0.70 in - 0% 0 mhos 46 - None None - -
Date/Time
(MDT)
Sf
Temp Chem Water Layer Surface Precipitation
Sfc Pvt Sub Frz Factor Pct Dpth DpthThk IcePct Cond Salin FI Type Intens Accum Rate
04/24/2017 00:54 Wet 32.5F - 44F 32F 5 0% 0.70 in - 0% 0 mhos 46 - None None - -
04/24/2017 00:44 Wet 32.5F - 44F 32F 5 0% 0.70 in - 0% 0 mhos 46 - None None - -
04/24/2017 00:40 Wet 32.5F - 44F 32F 5 0% 0.70 in - 0% 0 mhos 46 - None None - -
04/24/2017 00:34 Wet 32.7F - 44F 32F 5 0% 0.70 in - 0% 0 mhos 46 - None None - -
04/24/2017 00:25 Wet 32.9F - 44F 32F 5 0% 0.70 in - 0% 0 mhos 46 - None None - -
04/24/2017 00:24 Wet 32.9F - 44F 32F 5 0% 0.70 in - 0% 0 mhos 46 - None None - -
04/24/2017 00:14 Wet 33.1F - 44F 32F 5 0% 0.70 in - 0% 0 mhos 45 - None None - -
04/24/2017 00:10 Wet 33.1F - 44F 32F 5 0% 0.70 in - 0% 0 mhos 46 - None None - -
04/24/2017 00:04 Wet 32.9F - 44F 32F 5 0% 0.60 in - 0% 0 mhos 46 - None None - -
04/23/2017 23:55 Wet 33.3F - 45F 32F 5 0% 0.70 in - 0% 0 mhos 45 - None None - -
04/23/2017 23:54 Wet 33.4F - 44F 32F 5 0% 0.70 in - 0% 0 mhos 45 - None None - -
04/23/2017 23:44 Wet 33.4F - 45F 32F 5 0% 0.70 in - 0% 0 mhos 46 - None None - -
04/23/2017 23:40 Wet 33.3F - 45F 32F 5 1% 0.70 in - 0% 4 mhos 382 - None None - -
04/23/2017 23:34 Wet 33.4F - 45F 31F 5 3% 0.70 in - 0% 7 mhos 751 - None None - -
04/23/2017 23:25 Wet 33.3F - 45F 31F 5 3% 0.70 in - 0% 9 mhos 879 - None None - -
Date/Time
(MDT)
Sf
Temp Chem Water Layer Surface Precipitation
Sfc Pvt Sub Frz Factor Pct Dpth DpthThk IcePct Cond Salin FI Type Intens Accum Rate
04/23/2017 23:24 Wet 33.3F - 45F 31F 5 3% 0.70 in - 0% 9 mhos 906 - None None - -
04/23/2017 23:14 Wet 33.4F - 45F 31F 5 3% 0.70 in - 0% 9 mhos 919 - None None - -
04/23/2017 23:10 Wet 33.4F - 45F 31F 5 3% 0.70 in - 0% 9 mhos 943 - None None - -
04/23/2017 23:04 Wet 33.3F - 45F 31F 5 3% 0.70 in - 0% 9 mhos 940 - None None - -
04/23/2017 22:55 Wet 33.6F - 45F 31F 5 3% 0.70 in - 0% 9 mhos 926 - None None - -
04/23/2017 22:54 Wet 33.6F - 45F 31F 5 3% 0.70 in - 0% 10 mhos 1009 - None None - -
04/23/2017 22:44 Wet 33.4F - 45F 31F 5 4% 0.70 in - 0% 11 mhos 1083 - None None - -
04/23/2017 22:40 Wet 33.6F - 45F 31F 5 4% 0.70 in - 0% 11 mhos 1163 - None None - -
04/23/2017 22:33 Wet 33.8F - 45F 31F 5 4% 0.70 in - 0% 11 mhos 1081 - None None - -
04/23/2017 22:25 Wet 34.0F - 45F 31F 5 4% 0.70 in - 0% 11 mhos 1116 - None None - -
04/23/2017 22:23 Wet 34.2F - 45F 31F 5 4% 0.70 in - 0% 11 mhos 1146 - None None - -
04/23/2017 22:13 Wet 34.7F - 45F 31F 5 4% 0.70 in - 0% 12 mhos 1183 - None None - -
04/23/2017 22:10 Wet 34.9F - 45F 31F 5 4% 0.70 in - 0% 12 mhos 1158 - None None - -
04/23/2017 22:03 Wet 34.7F - 45F 31F 5 4% 0.70 in - 0% 12 mhos 1178 - None None - -
04/23/2017 21:55 Wet 34.7F - 45F 31F 5 3% 0.70 in - 0% 10 mhos 997 - None None - -
Date/Time
(MDT)
Sf
Temp Chem Water Layer Surface Precipitation
Sfc Pvt Sub Frz Factor Pct Dpth DpthThk IcePct Cond Salin FI Type Intens Accum Rate
04/23/2017 21:53 Wet 34.7F - 45F 31F 5 3% 0.70 in - 0% 9 mhos 926 - None None - -
04/23/2017 21:43 Wet 34.7F - 45F 31F 5 3% 0.70 in - 0% 8 mhos 841 - None None - -
04/23/2017 21:40 Wet 34.7F - 45F 31F 5 3% 0.70 in - 0% 8 mhos 775 - None None - -
04/23/2017 21:33 Wet 34.9F - 45F 31F 5 3% 0.70 in - 0% 8 mhos 830 - Yes - - -
04/23/2017 21:25 Wet 35.4F - 45F 31F 5 4% 0.70 in - 0% 11 mhos 1133 - None None - -
04/23/2017 21:23 Wet 35.4F - 45F 31F 5 4% 0.90 in - 0% 12 mhos 1145 - None None - -
04/23/2017 21:13 Wet 35.8F - 45F 31F 5 4% 0.70 in - 0% 11 mhos 1081 - None None - -
04/23/2017 21:10 Wet 35.8F - 45F 31F 5 3% 0.70 in - 0% 9 mhos 893 - None None - -
04/23/2017 21:03 Wet 35.2F - 45F 31F 5 2% 0.70 in - 0% 6 mhos 620 - None None - -
04/23/2017 20:55 Wet 35.6F - 45F 32F 5 2% 0.70 in - 0% 6 mhos 544 - None None - -
04/23/2017 20:53 Wet 35.6F - 45F 32F 5 1% 0.70 in - 0% 4 mhos 390 - None None - -
04/23/2017 20:43 Wet 36.0F - 45F 32F 5 0% 0.70 in - 0% 0 mhos 44 - None None - -
04/23/2017 20:40 Wet 36.3F - 45F 32F 5 0% 0.70 in - 0% 0 mhos 44 - None None - -
04/23/2017 20:33 Wet 36.7F - 45F 32F 5 0% 0.70 in - 0% 0 mhos 43 - None None - -
04/23/2017 20:25 Wet 37.2F - 45F 32F 5 1% 0.70 in - 0% 3 mhos 266 - None None - -
Date/Time
(MDT)
Sf
Temp Chem Water Layer Surface Precipitation
Sfc Pvt Sub Frz Factor Pct Dpth DpthThk IcePct Cond Salin FI Type Intens Accum Rate
04/23/2017 20:23 Wet 37.2F - 45F 32F 5 1% 0.70 in - 0% 3 mhos 278 - None None - -
04/23/2017 20:13 Wet 38.1F - 45F 32F 5 1% 0.70 in - 0% 4 mhos 337 - None None - -
04/23/2017 20:10 Wet 38.3F - 45F 32F 5 1% 0.70 in - 0% 4 mhos 353 - None None - -
04/23/2017 20:03 Wet 38.8F - 45F 32F 5 1% 0.20 in - 0% 4 mhos 405 - None None - -
04/23/2017 19:55 Wet 39.6F - 45F 32F 5 1% 0.20 in - 0% 5 mhos 431 - None None - -
04/23/2017 19:53 Wet 39.7F - 45F 32F 5 1% 0.20 in - 0% 5 mhos 439 - None None - -
04/23/2017 19:43 Wet 40.5F - 45F 32F 10 2% 0.30 in - 0% 5 mhos 464 - None None - -
04/23/2017 19:40 Wet 41.0F - 45F 32F 10 2% 0.30 in - 0% 5 mhos 466 - None None - -
04/23/2017 19:33 Wet 42.4F - 45F 32F 10 2% 0.30 in - 0% 5 mhos 479 - None None - -
04/23/2017 19:25 Wet 44.6F - 45F 32F 15 2% 0.30 in - 0% 6 mhos 532 - None None - -
04/23/2017 19:23 Wet 45.0F - 45F 32F 20 2% 0.30 in - 0% 6 mhos 553 - None None - -
04/23/2017 19:12 Wet 46.4F - 45F 31F 40 3% 0.20 in - 0% 12 mhos 1031 - None None - -
04/23/2017 19:10 Wet 46.6F - 45F 31F 40 5% 0.10 in - 0% 16 mhos 1432 - None None - -
04/23/2017 19:02 Wet 46.2F - 45F 27F 40 16% 0.00 in - 0% 48 mhos 4750 - None None - -
04/23/2017 18:55 Wet 47.3F - 45F 3F 40 50% 0.00 in - 0% 109 mhos 15000 - None None - -
Date/Time
(MDT)
Sf
Temp Chem Water Layer Surface Precipitation
Sfc Pvt Sub Frz Factor Pct Dpth DpthThk IcePct Cond Salin FI Type Intens Accum Rate
04/23/2017 18:52 Wet 47.1F - 45F 3F 40 50% 0.00 in - 0% 118 mhos 15000 - None None - -
04/23/2017 18:42 Wet 47.7F - 45F 3F 35 50% 0.00 in - 0% 165 mhos 15000 - None None - -
04/23/2017 18:40 Wet 49.1F - 45F 3F 30 50% 0.00 in - 0% 180 mhos 15000 - None None - -
04/23/2017 18:32 Wet 48.6F - 45F 3F 40 50% 0.00 in - 0% 270 mhos 15000 - None None - -
04/23/2017 18:25 Wet 48.2F - 45F 3F 30 50% 0.00 in - 0% 259 mhos 15000 - Yes - - -
04/23/2017 18:22 Wet 47.3F - 45F 3F 25 50% 0.00 in - 0% 248 mhos 15000 - None None - -
04/23/2017 18:12 Wet 43.9F - 45F 3F 20 50% 0.00 in - 0% 229 mhos 15000 - None None - -
04/23/2017 18:10 Wet 44.1F - 45F 3F 20 50% 0.00 in - 0% 220 mhos 15000 - Yes - - -
04/23/2017 18:02 Wet 44.1F - 45F 3F 20 50% 0.00 in - 0% 238 mhos 15000 - Yes - - -
04/23/2017 17:55 Wet 43.7F - 45F 3F 10 50% 0.00 in - 0% 205 mhos 15000 - None None - -
04/23/2017 17:52 Wet 42.8F - 45F 3F 5 50% 0.00 in - 0% 180 mhos 15000 - None None - -
04/23/2017 17:42 Wet 40.5F - 45F 3F 5 50% 0.00 in - 0% 121 mhos 15000 - Yes - - -
04/23/2017 17:40 Wet 39.6F - 45F 3F 5 50% 0.00 in - 0% 97 mhos 15000 - Yes - - -
04/23/2017 17:32 Wet 35.2F - 45F 13F 5 39% 0.70 in - 0% 75 mhos 11754 - Yes - - -
04/23/2017 17:25 Wet 33.6F - 45F 17F 55 33% 0.00 in - 0% 68 mhos 9831 - Yes - - -
Date/Time
(MDT)
Sf
Temp Chem Water Layer Surface Precipitation
Sfc Pvt Sub Frz Factor Pct Dpth DpthThk IcePct Cond Salin FI Type Intens Accum Rate
04/23/2017 17:22 Wet 33.6F - 45F 30F 15 7% 0.00 in - 0% 21 mhos 2194 - Yes - - -
04/23/2017 17:12 Wet 33.6F - 45F 31F 5 2% 0.70 in - 0% 6 mhos 573 - Yes - - -
04/23/2017 17:10 Wet 33.8F - 45F 32F 5 2% 0.70 in - 0% 5 mhos 470 - Yes - - -
04/23/2017 17:02 Wet 34.9F - 45F 3F 5 50% 0.00 in - 0% 124 mhos 15000 - Yes - - -
04/23/2017 16:55 Wet 37.8F - 45F 3F 10 50% 0.00 in - 0% 248 mhos 15000 - Yes - - -
04/23/2017 16:52 Wet 38.8F - 45F 3F 40 50% 0.00 in - 0% 298 mhos 15000 - Yes - - -
04/23/2017 16:42 Wet 42.1F - 45F 3F 45 50% 0.00 in - 0% 542 mhos 15000 - Yes - - -
04/23/2017 16:40 Wet 42.3F - 45F 3F 65 50% 0.00 in - 0% 663 mhos 15000 - Yes - - -
04/23/2017 16:32 Wet 42.8F - 45F 3F 65 50% 0.00 in - 0% 1000 mhos 15000 - Yes - - -
04/23/2017 16:25 Wet 42.6F - 45F 3F 95 50% 0.00 in - 0% 1495 mhos 15000 - Yes - - -
04/23/2017 16:22 Wet 43.9F - 45F 3F 95 50% 0.00 in - 0% 1497 mhos 15000 - Yes - - -
04/23/2017 16:12 Wet 46.4F - 45F 3F 95 50% 0.00 in - 0% 390 mhos 15000 - Yes - - -
04/23/2017 16:10 Wet 49.6F - 45F 3F 95 50% 0.00 in - 0% 160 mhos 15000 - None None - -
04/23/2017 16:02 Wet 53.6F - 45F 29F 50 11% 0.10 in - 0% 38 mhos 3286 - None None - -
04/23/2017 15:55 Wet 55.8F - 45F 29F 35 10% 0.00 in - 0% 37 mhos 3126 - None None - -
Date/Time
(MDT)
Sf
Temp Chem Water Layer Surface Precipitation
Sfc Pvt Sub Frz Factor Pct Dpth DpthThk IcePct Cond Salin FI Type Intens Accum Rate
04/23/2017 15:51 Wet 56.5F - 45F 29F 30 10% 0.00 in - 0% 35 mhos 2889 - None None - -
04/23/2017 15:41 Wet 58.1F - 45F 29F 35 10% 0.00 in - 0% 37 mhos 2981 - None None - -
04/23/2017 15:40 Wet 58.5F - 45F 29F 30 10% 0.00 in - 0% 36 mhos 2869 - None None - -
04/23/2017 15:31 Wet 58.1F - 45F 29F 30 9% 0.00 in - 0% 35 mhos 2841 - None None - -
04/23/2017 15:25 Wet 56.8F - 45F 29F 35 10% 0.00 in - 0% 38 mhos 3135 - None None - -
04/23/2017 15:21 Wet 56.5F - 44F 29F 30 10% 0.00 in - 0% 37 mhos 3059 - None None - -
04/23/2017 15:11 Wet 54.7F - 44F 28F 45 13% 0.00 in - 0% 45 mhos 3959 - None None - -
04/23/2017 15:10 Wet 54.7F - 44F 28F 45 14% 0.00 in - 0% 47 mhos 4109 - None None - -
04/23/2017 15:01 Wet 54.1F - 44F 27F 50 14% 0.00 in - 0% 48 mhos 4252 - None None - -
04/23/2017 14:55 Wet 54.3F - 44F 28F 50 14% 0.00 in - 0% 47 mhos 4118 - None None - -
04/23/2017 14:51 Wet 54.3F - 44F 28F 55 14% 0.00 in - 0% 47 mhos 4110 - None None - -
04/23/2017 14:41 Wet 54.1F - 44F 28F 50 13% 0.00 in - 0% 43 mhos 3792 - None None - -
04/23/2017 14:40 Wet 54.0F - 44F 28F 50 13% 0.00 in - 0% 45 mhos 3936 - None None - -
04/23/2017 14:31 Wet 53.8F - 44F 28F 50 12% 0.00 in - 0% 43 mhos 3746 - None None - -
04/23/2017 14:25 Wet 53.2F - 44F 28F 55 14% 0.00 in - 0% 46 mhos 4124 - None None - -
Date/Time
(MDT)
Sf
Temp Chem Water Layer Surface Precipitation
Sfc Pvt Sub Frz Factor Pct Dpth DpthThk IcePct Cond Salin FI Type Intens Accum Rate
04/23/2017 14:21 Wet 52.3F - 44F 27F 55 14% 0.00 in - 0% 48 mhos 4339 - None None - -
04/23/2017 14:11 Wet 51.3F - 44F 26F 65 16% 0.00 in - 0% 52 mhos 4873 - None None - -
04/23/2017 14:10 Wet 51.3F - 44F 27F 65 16% 0.00 in - 0% 51 mhos 4819 - None None - -
04/23/2017 14:01 Wet 52.2F - 44F 27F 60 14% 0.10 in - 0% 47 mhos 4251 - None None - -
04/23/2017 13:55 Wet 52.9F - 44F 28F 60 13% 0.10 in - 0% 45 mhos 4049 - None None - -
04/23/2017 13:51 Wet 53.4F - 44F 28F 60 13% 0.10 in - 0% 44 mhos 3847 - None None - -
04/23/2017 13:41 Wet 55.0F - 44F 29F 50 10% 0.10 in - 0% 37 mhos 3106 - None None - -
04/23/2017 13:40 Wet 55.2F - 44F 29F 50 10% 0.10 in - 0% 37 mhos 3120 - None None - -
04/23/2017 13:31 Wet 56.3F - 44F 29F 45 9% 0.10 in - 0% 34 mhos 2820 - None None - -
04/23/2017 13:25 Wet 55.6F - 44F 29F 50 10% 0.10 in - 0% 36 mhos 3045 - None None - -
04/23/2017 13:21 Wet 54.7F - 44F 29F 50 11% 0.10 in - 0% 37 mhos 3167 - None None - -
04/23/2017 13:11 Wet 52.2F - 44F 28F 70 13% 0.10 in - 0% 44 mhos 3949 - None None - -
04/23/2017 13:10 Wet 52.0F - 44F 28F 70 13% 0.10 in - 0% 45 mhos 4035 - None None - -
Change End Date:

Copyright © 1998-2015 Vaisala, Inc.
All Rights Reserved
Send comments about the data to:
SCAN Web ® is a registered trademark of Vaisala, Inc.
SCAN Web Version 6.0